Location: Bonny Doon Airfield
(37.0704°N, 122.1252°W)
Time: 19:13:53
(UTC-08:00)

N. Korean satellite - Pass Details

Date: 15 October 2017
Orbit: 461 x 513 km, 97.2° (Epoch: 17 December)

Event Time Altitude Azimuth Distance (km) Brightness Sun altitude
Rises 19:08:16 0° 164° (SSE) 2,544 10.1 -8.2°
Reaches altitude 10° 19:10:20 10° 163° (SSE) 1,659 9.1 -8.6°
Maximum altitude 19:13:53 77° 79° (ENE) 496 6.4 -9.3°
Drops below altitude 10° 19:17:25 10° 352° (N) 1,643 9.3 -10.0°
Sets 19:19:28 0° 351° (N) 2,517 10.3 -10.4°
